Weather in Ushakovo

Russia / Kaliningrad Oblast     54°36′32″N   20°14′08″E
temp.,
°C
wind,
m/s
gust,
m/s
humid.,
%
clouds,
%
prec.,
mm/h
press.,
hPa
HPBL,
m
20 april, tue
tue2023:00+10e376895 0.0 1018135
02:00+8ese357950 0.0 101788
05:00+6se358937 0.0 101776
08:00+10ese347398 0.0 1017184
11:00+13e345483 0.0 10161124
14:00+14ne2349100 0.0 10141795
17:00+13nne356593 0.1 1014284
20:00+8ne338019 0.2 101336
21 april, wed
wed2123:00+6ne11795 0.0 101310
02:00+6w12775 0.0 101210
05:00+5w22825 0.0 101112
08:00+8wnw34745 0.0 1011205
11:00+11w456410 0.0 1010658
14:00+12wnw46553 0.0 1009892
17:00+10wnw465850 0.0 1009444
20:00+7wnw267296 0.1 1009208
22 april, thu
thu2223:00+5w3592100 0.0 1009150
02:00+4wsw41094100 2.1 1008490
05:00+3wsw611875 0.1 1008551
08:00+4wsw8108299 0.2 1009855
11:00+5sw8107388 0.0 10091005
14:00+6sw897887 0.3 10101038
17:00+6sw697876 0.5 1010978
20:00+3wsw5107814 1.0 1010412
23 april, fri
fri2323:00+2wsw6108883 0.2 1010527
02:00+3wsw71194100 1.6 1010772
05:00+2wsw7119286 0.0 1010603
08:00+3wnw71091100 0.9 1012866
11:00+3nw71296100 1.4 1014859
14:00+4nw10127743 2.4 10171425
17:00+4nw914625 0.3 10181813
20:00+2nw611665 0.3 1019512
24 april, sat
sat2423:00+1w476878 0.0 1019229
02:00+1sw487720 0.0 1018186
05:00+1wsw49845 0.1 1018189
08:00+5wnw696693 0.2 1018928
11:00+6nw6851100 0.0 10181816
14:00+6nw785374 0.0 10191407
17:00+5nnw78584 0.0 10201258
20:00+1nw47714 0.0 1020212